| time (UTC) | temp C | wind direction | speed KPH | gust KPH | rain 1hr cm | rain 24hr cm | rain mn cm | humidity % | barometer mb |
| 20260906080212 | 18 | 31 | 6.4 | 9.7 | 0.00 | 0.00 | 0.00 | 90 | 1016.5 |
| 20260906075712 | 18 | 54 | 6.4 | 6.4 | 0.00 | 0.00 | 0.00 | 90 | 1016.4 |
| 20260906075206 | 18 | 49 | 6.4 | 9.7 | 0.00 | 0.00 | 0.00 | 90 | 1016.2 |
| 20260906074701 | 18 | 46 | 9.7 | 11.3 | 0.00 | 0.00 | 0.00 | 90 | 1016.3 |
| 20260906074200 | 18 | 32 | 3.2 | 11.3 | 0.00 | 0.00 | 0.00 | 89 | 1016.1 |
| 20260906073655 | 18 | 58 | 6.4 | 11.3 | 0.00 | 0.00 | 0.00 | 89 | 1016.1 |
| 20260906073151 | 18 | 55 | 8.0 | 11.3 | 0.00 | 0.00 | 0.00 | 88 | 1016.0 |
| 20260906072646 | 19 | 38 | 6.4 | 11.3 | 0.00 | 0.00 | 0.00 | 87 | 1016.1 |
| 20260906072141 | 19 | 60 | 9.7 | 12.9 | 0.00 | 0.00 | 0.00 | 87 | 1015.9 |
| 20260906071638 | 19 | 62 | 4.8 | 11.3 | 0.00 | 0.00 | 0.00 | 86 | 1015.9 |
| 20260906071138 | 20 | 35 | 4.8 | 14.5 | 0.00 | 0.00 | 0.00 | 86 | 1016.0 |
| 20260906070634 | 20 | 36 | 9.7 | 11.3 | 0.00 | 0.00 | 0.00 | 85 | 1016.1 |
| 20260906070130 | 20 | 5 | 3.2 | 11.3 | 0.00 | 0.00 | 0.00 | 85 | 1016.1 |
| 20260906065629 | 20 | 45 | 8.0 | 11.3 | 0.00 | 0.00 | 0.00 | 86 | 1015.9 |
| 20260906065125 | 20 | 41 | 4.8 | 12.9 | 0.00 | 0.00 | 0.00 | 86 | 1016.2 |
| 20260906064620 | 20 | 33 | 6.4 | 12.9 | 0.00 | 0.00 | 0.00 | 86 | 1016.3 |
| 20260906064115 | 20 | 48 | 6.4 | 9.7 | 0.00 | 0.00 | 0.00 | 86 | 1016.2 |
| 20260906063616 | 20 | 3 | 3.2 | 11.3 | 0.00 | 0.00 | 0.00 | 86 | 1016.1 |
| 20260906063112 | 20 | 57 | 4.8 | 6.4 | 0.00 | 0.00 | 0.00 | 86 | 1016.2 |
| 20260906062607 | 20 | 11 | 3.2 | 9.7 | 0.00 | 0.00 | 0.00 | 87 | 1016.1 |
| 20260906062106 | 20 | 53 | 8.0 | 11.3 | 0.00 | 0.00 | 0.00 | 87 | 1016.0 |
| 20260906061602 | 20 | 3 | 3.2 | 6.4 | 0.00 | 0.00 | 0.00 | 87 | 1016.0 |
| 20260906061102 | 20 | 10 | 3.2 | 6.4 | 0.00 | 0.00 | 0.00 | 87 | 1015.9 |
| 20260906060558 | 20 | 48 | 3.2 | 6.4 | 0.00 | 0.00 | 0.00 | 87 | 1015.9 |
| 20260906060055 | 20 | 353 | 4.8 | 6.4 | 0.00 | 0.00 | 0.00 | 88 | 1015.8 |
| 20260906055551 | 20 | 27 | 1.6 | 6.4 | 0.00 | 0.00 | 0.00 | 88 | 1015.7 |
| 20260906055046 | 20 | 40 | 3.2 | 4.8 | 0.00 | 0.00 | 0.00 | 89 | 1015.8 |
| 20260906054541 | 20 | 49 | 4.8 | 6.4 | 0.00 | 0.00 | 0.00 | 88 | 1015.9 |
| 20260906054036 | 20 | 26 | 4.8 | 6.4 | 0.00 | 0.00 | 0.00 | 88 | 1016.0 |
| 20260906053532 | 20 | 39 | 3.2 | 6.4 | 0.00 | 0.00 | 0.00 | 87 | 1015.8 |
| 20260906053028 | 20 | 35 | 3.2 | 3.2 | 0.00 | 0.00 | 0.00 | 88 | 1015.8 |
| 20260906052523 | 20 | 40 | 0.0 | 1.6 | 0.00 | 0.00 | 0.00 | 88 | 1015.8 |
| 20260906052020 | 20 | 67 | 0.0 | 0.0 | 0.00 | 0.00 | 0.00 | 87 | 1015.8 |
| 20260906051516 | 20 | 17 | 1.6 | 4.8 | 0.00 | 0.00 | 0.00 | 87 | 1015.7 |
| 20260906051011 | 20 | 34 | 1.6 | 4.8 | 0.00 | 0.00 | 0.00 | 87 | 1015.7 |
| 20260906050511 | 20 | 24 | 3.2 | 4.8 | 0.00 | 0.00 | 0.00 | 87 | 1015.4 |
| 20260906050006 | 20 | 36 | 4.8 | 6.4 | 0.00 | 0.00 | 0.00 | 87 | 1015.5 |
| 20260906045504 | 20 | 27 | 3.2 | 6.4 | 0.00 | 0.00 | 0.00 | 87 | 1015.5 |
| 20260906045000 | 20 | 51 | 4.8 | 9.7 | 0.00 | 0.00 | 0.00 | 87 | 1015.7 |
| 20260906044455 | 20 | 11 | 4.8 | 6.4 | 0.00 | 0.00 | 0.00 | 86 | 1015.7 |
| 20260906043951 | 20 | 31 | 4.8 | 6.4 | 0.00 | 0.00 | 0.00 | 86 | 1015.5 |
| 20260906043447 | 20 | 19 | 1.6 | 6.4 | 0.00 | 0.00 | 0.00 | 86 | 1015.4 |
| 20260906042942 | 20 | 42 | 4.8 | 6.4 | 0.00 | 0.00 | 0.00 | 86 | 1015.2 |
| 20260906042441 | 21 | 356 | 3.2 | 9.7 | 0.00 | 0.00 | 0.00 | 86 | 1015.0 |
| 20260906041936 | 20 | 47 | 4.8 | 9.7 | 0.00 | 0.00 | 0.00 | 86 | 1015.1 |
| 20260906041432 | 20 | 66 | 4.8 | 6.4 | 0.00 | 0.00 | 0.00 | 87 | 1015.2 |
| 20260906040932 | 21 | 28 | 4.8 | 6.4 | 0.00 | 0.00 | 0.00 | 87 | 1015.1 |
| 20260906040427 | 21 | 30 | 3.2 | 6.4 | 0.00 | 0.00 | 0.00 | 87 | 1014.9 |
| 20260906035922 | 21 | 45 | 4.8 | 4.8 | 0.00 | 0.76 | 0.76 | 87 | 1015.2 |
| 20260906035418 | 21 | 43 | 6.4 | 11.3 | 0.00 | 0.76 | 0.76 | 86 | 1015.1 |
| 20260906034913 | 21 | 80 | 6.4 | 9.7 | 0.00 | 0.76 | 0.76 | 87 | 1015.3 |
| 20260906034413 | 21 | 89 | 4.8 | 4.8 | 0.00 | 0.76 | 0.76 | 88 | 1015.0 |
| 20260906033908 | 21 | 80 | 6.4 | 9.7 | 0.00 | 0.76 | 0.76 | 89 | 1015.0 |
| 20260906033408 | 20 | 98 | 6.4 | 6.4 | 0.00 | 0.76 | 0.76 | 90 | 1014.8 |
| 20260906032904 | 20 | 73 | 4.8 | 11.3 | 0.00 | 0.76 | 0.76 | 91 | 1015.0 |
| 20260906032400 | 20 | 51 | 3.2 | 6.4 | 0.00 | 0.76 | 0.76 | 91 | 1015.1 |
| 20260906031855 | 20 | 53 | 6.4 | 9.7 | 0.00 | 0.76 | 0.76 | 91 | 1014.9 |
| 20260906031350 | 20 | 75 | 6.4 | 9.7 | 0.00 | 0.76 | 0.76 | 92 | 1014.7 |
| 20260906030846 | 21 | 54 | 6.4 | 9.7 | 0.00 | 0.76 | 0.76 | 92 | 1014.8 |
| 20260906030341 | 21 | 46 | 4.8 | 6.4 | 0.00 | 0.76 | 0.76 | 92 | 1014.9 |
| 20260906025840 | 21 | 83 | 9.7 | 14.5 | 0.00 | 0.76 | 0.76 | 92 | 1014.8 |
| 20260906025334 | 21 | 38 | 6.4 | 12.9 | 0.00 | 0.76 | 0.76 | 91 | 1014.9 |
| 20260906024834 | 21 | 89 | 8.0 | 11.3 | 0.00 | 0.76 | 0.76 | 92 | 1014.8 |
| 20260906024333 | 21 | 59 | 3.2 | 11.3 | 0.00 | 0.76 | 0.76 | 92 | 1014.8 |
| 20260906023829 | 21 | 35 | 6.4 | 9.7 | 0.00 | 0.76 | 0.76 | 92 | 1014.8 |
| 20260906023324 | 21 | 60 | 8.0 | 12.9 | 0.00 | 0.76 | 0.76 | 91 | 1014.7 |
| 20260906022820 | 21 | 77 | 6.4 | 12.9 | 0.00 | 0.76 | 0.76 | 91 | 1014.5 |
| 20260906022315 | 21 | 116 | 9.7 | 12.9 | 0.00 | 0.76 | 0.76 | 91 | 1014.5 |
| 20260906021810 | 21 | 52 | 3.2 | 11.3 | 0.00 | 0.76 | 0.76 | 91 | 1014.7 |
| 20260906021310 | 21 | 91 | 9.7 | 16.1 | 0.00 | 0.76 | 0.76 | 91 | 1014.5 |
| 20260906020810 | 22 | 87 | 11.3 | 14.5 | 0.00 | 0.76 | 0.76 | 91 | 1014.6 |
| 20260906020310 | 22 | 77 | 9.7 | 11.3 | 0.00 | 0.76 | 0.76 | 91 | 1014.6 |
| 20260906015810 | 22 | 75 | 11.3 | 16.1 | 0.00 | 0.76 | 0.76 | 91 | 1014.6 |
| 20260906015308 | 22 | 63 | 6.4 | 14.5 | 0.00 | 0.76 | 0.76 | 92 | 1014.6 |
| 20260906014803 | 22 | 74 | 6.4 | 14.5 | 0.00 | 0.76 | 0.76 | 92 | 1014.4 |
| 20260906014258 | 22 | 60 | 11.3 | 20.9 | 0.00 | 0.76 | 0.76 | 91 | 1014.4 |
| 20260906013754 | 22 | 87 | 9.7 | 11.3 | 0.00 | 0.76 | 0.76 | 91 | 1014.2 |
| 20260906013249 | 22 | 53 | 8.0 | 16.1 | 0.00 | 0.76 | 0.76 | 91 | 1014.1 |
| 20260906012744 | 22 | 53 | 14.5 | 16.1 | 0.00 | 0.76 | 0.76 | 91 | 1013.9 |
| 20260906012239 | 22 | 50 | 12.9 | 20.9 | 0.00 | 0.76 | 0.76 | 91 | 1013.8 |
| 20260906011735 | 22 | 90 | 11.3 | 16.1 | 0.00 | 0.76 | 0.76 | 91 | 1013.8 |
| 20260906011234 | 22 | 357 | 9.7 | 17.7 | 0.00 | 0.76 | 0.76 | 91 | 1013.6 |
| 20260906010729 | 22 | 42 | 11.3 | 12.9 | 0.00 | 0.76 | 0.76 | 91 | 1013.5 |
| 20260906010226 | 22 | 44 | 9.7 | 17.7 | 0.00 | 0.76 | 0.76 | 91 | 1013.5 |
| 20260906005721 | 22 | 74 | 17.7 | 20.9 | 0.00 | 0.76 | 0.76 | 91 | 1013.4 |
| 20260906005220 | 23 | 78 | 8.0 | 20.9 | 0.00 | 0.76 | 0.76 | 90 | 1013.3 |
| 20260906004719 | 23 | 88 | 9.7 | 22.5 | 0.00 | 0.76 | 0.76 | 90 | 1013.5 |
| 20260906004214 | 23 | 67 | 11.3 | 22.5 | 0.00 | 0.76 | 0.76 | 90 | 1013.7 |
| 20260906003710 | 23 | 84 | 3.2 | 11.3 | 0.00 | 0.76 | 0.76 | 91 | 1013.5 |
| 20260906003206 | 23 | 68 | 6.4 | 11.3 | 0.00 | 0.76 | 0.76 | 91 | 1013.4 |
| 20260906002705 | 23 | 55 | 6.4 | 12.9 | 0.00 | 0.76 | 0.76 | 91 | 1013.1 |
| 20260906002200 | 23 | 76 | 11.3 | 16.1 | 0.00 | 0.76 | 0.76 | 90 | 1013.4 |
| 20260906001656 | 24 | 95 | 17.7 | 20.9 | 0.00 | 0.76 | 0.76 | 89 | 1013.0 |
| 20260906001155 | 24 | 45 | 12.9 | 16.1 | 0.00 | 0.76 | 0.76 | 88 | 1013.2 |
| 20260906000651 | 24 | 36 | 9.7 | 22.5 | 0.00 | 0.76 | 0.76 | 88 | 1013.0 |
| 20260906000146 | 25 | 62 | 9.7 | 16.1 | 0.00 | 0.76 | 0.76 | 88 | 1013.0 |
| 20260905235645 | 25 | 43 | 11.3 | 14.5 | 0.00 | 0.76 | 0.76 | 87 | 1013.3 |
| 20260905235140 | 25 | 356 | 6.4 | 16.1 | 0.00 | 0.76 | 0.76 | 87 | 1013.2 |
| 20260905234636 | 25 | 46 | 11.3 | 14.5 | 0.00 | 0.76 | 0.76 | 87 | 1013.1 |
| 20260905234131 | 25 | 65 | 9.7 | 17.7 | 0.00 | 0.76 | 0.76 | 87 | 1012.8 |
| 20260905233626 | 25 | 58 | 8.0 | 11.3 | 0.00 | 0.76 | 0.76 | 87 | 1012.7 |
| 20260905233120 | 25 | 15 | 8.0 | 16.1 | 0.00 | 0.76 | 0.76 | 87 | 1013.0 |
| 20260905232616 | 25 | 105 | 9.7 | 12.9 | 0.00 | 0.76 | 0.76 | 87 | 1012.8 |
| 20260905232112 | 25 | 55 | 9.7 | 12.9 | 0.00 | 0.76 | 0.76 | 86 | 1013.0 |
| 20260905231611 | 25 | 87 | 9.7 | 12.9 | 0.00 | 0.76 | 0.76 | 86 | 1012.9 |
| 20260905231108 | 25 | 93 | 4.8 | 11.3 | 0.00 | 0.76 | 0.76 | 86 | 1012.8 |
| 20260905230603 | 26 | 76 | 9.7 | 16.1 | 0.00 | 0.76 | 0.76 | 86 | 1012.6 |
| 20260905225600 | 26 | 86 | 9.7 | 16.1 | 0.00 | 0.76 | 0.76 | 85 | 1012.6 |
| 20260905225055 | 26 | 63 | 4.8 | 12.9 | 0.00 | 0.76 | 0.76 | 85 | 1012.7 |
| 20260905224555 | 26 | 78 | 8.0 | 11.3 | 0.00 | 0.76 | 0.76 | 84 | 1012.6 |
| 20260905224055 | 26 | 81 | 8.0 | 11.3 | 0.00 | 0.76 | 0.76 | 85 | 1012.6 |
| 20260905223553 | 26 | 43 | 12.9 | 16.1 | 0.00 | 0.76 | 0.76 | 83 | 1012.3 |
| 20260905223049 | 27 | 46 | 11.3 | 16.1 | 0.00 | 0.76 | 0.76 | 82 | 1012.3 |
| 20260905222548 | 27 | 64 | 9.7 | 14.5 | 0.00 | 0.76 | 0.76 | 82 | 1012.1 |
| 20260905222044 | 26 | 97 | 6.4 | 14.5 | 0.00 | 0.76 | 0.76 | 83 | 1012.1 |
| 20260905221540 | 26 | 53 | 8.0 | 16.1 | 0.00 | 0.76 | 0.76 | 84 | 1012.2 |
| 20260905221036 | 27 | 12 | 8.0 | 14.5 | 0.00 | 0.76 | 0.76 | 83 | 1012.4 |
| 20260905220531 | 28 | 43 | 14.5 | 24.1 | 0.00 | 0.76 | 0.76 | 79 | 1012.2 |
| 20260905220027 | 28 | 96 | 11.3 | 14.5 | 0.00 | 0.76 | 0.76 | 79 | 1012.0 |
| 20260905215526 | 28 | 61 | 8.0 | 17.7 | 0.00 | 0.76 | 0.76 | 79 | 1012.0 |
| 20260905215023 | 28 | 46 | 11.3 | 17.7 | 0.00 | 0.76 | 0.76 | 79 | 1011.8 |
| 20260905214518 | 28 | 19 | 11.3 | 17.7 | 0.00 | 0.76 | 0.76 | 79 | 1011.9 |
| 20260905214013 | 28 | 44 | 9.7 | 14.5 | 0.00 | 0.76 | 0.76 | 79 | 1012.1 |
| 20260905213509 | 27 | 24 | 6.4 | 12.9 | 0.00 | 0.76 | 0.76 | 81 | 1011.9 |
| 20260905213004 | 27 | 37 | 6.4 | 16.1 | 0.00 | 0.76 | 0.76 | 83 | 1012.0 |
| 20260905212459 | 27 | 4 | 8.0 | 14.5 | 0.00 | 0.76 | 0.76 | 81 | 1011.9 |
| 20260905211958 | 28 | 49 | 16.1 | 20.9 | 0.00 | 0.76 | 0.76 | 78 | 1012.0 |
| 20260905211454 | 29 | 37 | 9.7 | 12.9 | 0.00 | 0.76 | 0.76 | 76 | 1011.8 |
| 20260905210949 | 29 | 23 | 12.9 | 17.7 | 0.00 | 0.76 | 0.76 | 75 | 1011.9 |
| 20260905210445 | 29 | 44 | 9.7 | 16.1 | 0.00 | 0.76 | 0.76 | 75 | 1011.9 |
| 20260905205944 | 28 | 43 | 8.0 | 14.5 | 0.00 | 0.76 | 0.76 | 77 | 1012.1 |
| 20260905205439 | 28 | 32 | 11.3 | 16.1 | 0.00 | 0.76 | 0.76 | 78 | 1011.9 |
| 20260905204937 | 28 | 24 | 11.3 | 16.1 | 0.00 | 0.76 | 0.76 | 78 | 1012.0 |
| 20260905204434 | 29 | 356 | 8.0 | 17.7 | 0.00 | 0.76 | 0.76 | 76 | 1012.2 |
| 20260905203932 | 29 | 32 | 11.3 | 12.9 | 0.00 | 0.76 | 0.76 | 75 | 1012.3 |
| 20260905203428 | 28 | 34 | 4.8 | 11.3 | 0.00 | 0.76 | 0.76 | 78 | 1012.1 |
| 20260905202924 | 30 | 358 | 12.9 | 16.1 | 0.00 | 0.76 | 0.76 | 73 | 1012.4 |
| 20260905202419 | 30 | 357 | 8.0 | 11.3 | 0.00 | 0.76 | 0.76 | 72 | 1012.3 |
| 20260905201914 | 30 | 333 | 8.0 | 9.7 | 0.00 | 0.76 | 0.76 | 73 | 1012.2 |
| 20260905201410 | 30 | 6 | 6.4 | 11.3 | 0.00 | 0.76 | 0.76 | 73 | 1012.3 |
| 20260905200909 | 29 | 8 | 9.7 | 12.9 | 0.00 | 0.76 | 0.76 | 75 | 1012.5 |
| 20260905200405 | 28 | 0 | 4.8 | 11.3 | 0.00 | 0.76 | 0.76 | 78 | 1012.4 |
| 20260905195903 | 28 | 344 | 6.4 | 9.7 | 0.00 | 0.76 | 0.76 | 77 | 1012.5 |
| 20260905195359 | 28 | 349 | 6.4 | 12.9 | 0.00 | 0.76 | 0.76 | 76 | 1012.6 |
| 20260905194854 | 28 | 353 | 9.7 | 11.3 | 0.00 | 0.76 | 0.76 | 76 | 1012.4 |
| 20260905194354 | 29 | 39 | 3.2 | 9.7 | 0.00 | 0.76 | 0.76 | 75 | 1012.6 |
| 20260905193854 | 30 | 334 | 6.4 | 9.7 | 0.00 | 0.76 | 0.76 | 74 | 1012.4 |
| 20260905193348 | 30 | 16 | 6.4 | 9.7 | 0.00 | 0.76 | 0.76 | 75 | 1012.6 |
| 20260905192844 | 29 | 326 | 8.0 | 9.7 | 0.00 | 0.76 | 0.76 | 74 | 1012.5 |
| 20260905192340 | 29 | 27 | 3.2 | 9.7 | 0.00 | 0.76 | 0.76 | 74 | 1012.7 |
| 20260905191839 | 29 | 326 | 6.4 | 12.9 | 0.00 | 0.76 | 0.76 | 75 | 1013.0 |
| 20260905191338 | 29 | 338 | 9.7 | 14.5 | 0.00 | 0.76 | 0.76 | 72 | 1012.9 |
| 20260905190837 | 30 | 343 | 9.7 | 16.1 | 0.00 | 0.76 | 0.76 | 72 | 1012.9 |
| 20260905190336 | 30 | 1 | 9.7 | 12.9 | 0.00 | 0.76 | 0.76 | 72 | 1013.0 |
| 20260905185835 | 29 | 292 | 4.8 | 12.9 | 0.00 | 0.76 | 0.76 | 74 | 1012.9 |
| 20260905185331 | 29 | 322 | 4.8 | 6.4 | 0.00 | 0.76 | 0.76 | 75 | 1013.0 |
| 20260905184830 | 29 | 307 | 8.0 | 12.9 | 0.00 | 0.76 | 0.76 | 74 | 1013.1 |
| 20260905184329 | 28 | 347 | 3.2 | 11.3 | 0.00 | 0.76 | 0.76 | 75 | 1013.1 |
| 20260905183828 | 28 | 330 | 8.0 | 12.9 | 0.00 | 0.76 | 0.76 | 72 | 1013.2 |
| 20260905183323 | 28 | 285 | 3.2 | 6.4 | 0.00 | 0.76 | 0.76 | 76 | 1013.2 |
| 20260905182818 | 28 | 314 | 8.0 | 12.9 | 0.00 | 0.76 | 0.76 | 75 | 1013.4 |
| 20260905182317 | 28 | 269 | 6.4 | 9.7 | 0.00 | 0.76 | 0.76 | 76 | 1013.2 |
| 20260905181813 | 28 | 250 | 6.4 | 11.3 | 0.00 | 0.76 | 0.76 | 77 | 1013.4 |
| 20260905181312 | 28 | 266 | 6.4 | 9.7 | 0.00 | 0.76 | 0.76 | 75 | 1013.0 |
| 20260905180812 | 28 | 286 | 9.7 | 12.9 | 0.00 | 0.76 | 0.76 | 75 | 1013.3 |
| 20260905180307 | 28 | 279 | 4.8 | 6.4 | 0.00 | 0.76 | 0.76 | 77 | 1013.2 |
| 20260905175802 | 28 | 222 | 4.8 | 9.7 | 0.00 | 0.76 | 0.76 | 78 | 1013.3 |
| 20260905175256 | 27 | 286 | 8.0 | 12.9 | 0.00 | 0.76 | 0.76 | 76 | 1013.5 |
| 20260905174752 | 27 | 291 | 9.7 | 12.9 | 0.00 | 0.76 | 0.76 | 76 | 1013.5 |
| 20260905174247 | 27 | 296 | 9.7 | 14.5 | 0.00 | 0.76 | 0.76 | 76 | 1013.6 |
| 20260905173743 | 27 | 272 | 8.0 | 11.3 | 0.00 | 0.76 | 0.76 | 78 | 1013.9 |
| 20260905173239 | 27 | 277 | 8.0 | 9.7 | 0.00 | 0.76 | 0.76 | 75 | 1013.6 |
| 20260905172733 | 27 | 320 | 6.4 | 9.7 | 0.00 | 0.76 | 0.76 | 79 | 1013.8 |
| 20260905172232 | 26 | 330 | 0.0 | 6.4 | 0.00 | 0.76 | 0.76 | 78 | 1013.6 |
| 20260905171728 | 26 | 351 | 6.4 | 11.3 | 0.00 | 0.76 | 0.76 | 80 | 1013.9 |
| 20260905171224 | 26 | 332 | 8.0 | 11.3 | 0.00 | 0.76 | 0.76 | 80 | 1014.2 |
| 20260905170721 | 26 | 318 | 4.8 | 9.7 | 0.00 | 0.76 | 0.76 | 82 | 1014.0 |
| 20260905170221 | 25 | 292 | 8.0 | 9.7 | 0.00 | 0.76 | 0.76 | 82 | 1014.1 |
| 20260905165715 | 26 | 311 | 9.7 | 11.3 | 0.00 | 0.76 | 0.76 | 82 | 1014.0 |
| 20260905165211 | 25 | 270 | 8.0 | 11.3 | 0.00 | 0.76 | 0.76 | 82 | 1014.3 |
| 20260905164710 | 25 | 263 | 6.4 | 14.5 | 0.00 | 0.76 | 0.76 | 82 | 1014.2 |
| 20260905164211 | 26 | 246 | 6.4 | 11.3 | 0.00 | 0.76 | 0.76 | 80 | 1014.4 |
| 20260905163706 | 26 | 267 | 8.0 | 14.5 | 0.00 | 0.76 | 0.76 | 81 | 1014.1 |
| 20260905163203 | 26 | 254 | 11.3 | 14.5 | 0.00 | 0.76 | 0.76 | 81 | 1014.1 |
| 20260905162659 | 25 | 245 | 8.0 | 12.9 | 0.00 | 0.76 | 0.76 | 84 | 1014.2 |
| 20260905162158 | 25 | 269 | 9.7 | 12.9 | 0.00 | 0.76 | 0.76 | 84 | 1014.3 |
| 20260905161653 | 25 | 240 | 3.2 | 12.9 | 0.00 | 0.76 | 0.76 | 87 | 1014.3 |
| 20260905161151 | 24 | 255 | 6.4 | 11.3 | 0.00 | 0.76 | 0.76 | 87 | 1014.3 |
| 20260905160651 | 23 | 219 | 6.4 | 11.3 | 0.00 | 0.76 | 0.76 | 89 | 1014.1 |
| 20260905160150 | 23 | 224 | 3.2 | 9.7 | 0.00 | 0.76 | 0.76 | 90 | 1014.3 |
| 20260905155650 | 23 | 266 | 4.8 | 9.7 | 0.00 | 0.76 | 0.76 | 92 | 1014.4 |
| 20260905155149 | 22 | 228 | 4.8 | 6.4 | 0.00 | 0.76 | 0.76 | 94 | 1014.3 |
| 20260905154643 | 22 | 256 | 4.8 | 6.4 | 0.00 | 0.76 | 0.76 | 93 | 1014.5 |
| 20260905154139 | 22 | 261 | 3.2 | 3.2 | 0.00 | 0.76 | 0.76 | 93 | 1014.5 |
| 20260905153635 | 22 | 192 | 1.6 | 3.2 | 0.00 | 0.76 | 0.76 | 94 | 1014.6 |
| 20260905153130 | 21 | 37 | 0.0 | 1.6 | 0.00 | 0.76 | 0.76 | 96 | 1014.7 |
| 20260905152625 | 21 | 154 | 3.2 | 4.8 | 0.00 | 0.76 | 0.76 | 96 | 1014.5 |
| 20260905152119 | 21 | 82 | 3.2 | 3.2 | 0.00 | 0.76 | 0.76 | 95 | 1014.7 |
| 20260905151614 | 21 | 78 | 4.8 | 4.8 | 0.18 | 0.76 | 0.76 | 95 | 1014.6 |
| 20260905151110 | 21 | 15 | 3.2 | 4.8 | 0.18 | 0.76 | 0.76 | 95 | 1014.9 |
| 20260905150605 | 21 | 172 | 4.8 | 9.7 | 0.00 | 0.74 | 0.74 | 95 | 1014.6 |
| 20260905150104 | 21 | 203 | 6.4 | 9.7 | 0.00 | 0.74 | 0.74 | 95 | 1014.6 |
| 20260905145602 | 21 | 260 | 4.8 | 4.8 | 0.00 | 0.74 | 0.74 | 95 | 1014.7 |
| 20260905145101 | 21 | 351 | 6.4 | 9.7 | 0.00 | 0.74 | 0.74 | 95 | 1014.8 |
| 20260905144557 | 21 | 201 | 6.4 | 12.9 | 1.07 | 0.74 | 0.74 | 94 | 1014.2 |
| 20260905144056 | 21 | 187 | 12.9 | 16.1 | 2.11 | 0.74 | 0.74 | 94 | 1014.0 |
| 20260905143555 | 21 | 171 | 9.7 | 11.3 | 1.02 | 0.56 | 0.56 | 94 | 1014.2 |
| 20260905143051 | 21 | 168 | 4.8 | 4.8 | 0.00 | 0.38 | 0.38 | 93 | 1014.5 |
| 20260905142549 | 21 | 242 | 3.2 | 9.7 | 0.00 | 0.38 | 0.38 | 93 | 1014.3 |
| 20260905142049 | 21 | 205 | 9.7 | 14.5 | 0.18 | 0.38 | 0.38 | 92 | 1014.0 |
| 20260905141544 | 21 | 147 | 9.7 | 11.3 | 0.18 | 0.38 | 0.38 | 91 | 1014.2 |
| 20260905141041 | 21 | 57 | 6.4 | 9.7 | 0.00 | 0.36 | 0.36 | 91 | 1014.7 |
| 20260905140542 | 21 | 359 | 0.0 | 4.8 | 0.00 | 0.36 | 0.36 | 90 | 1014.6 |
| 20260905140040 | 21 | 82 | 11.3 | 14.5 | 0.00 | 0.36 | 0.36 | 91 | 1014.6 |
| 20260905135531 | 21 | 42 | 9.7 | 12.9 | 0.00 | 0.36 | 0.36 | 90 | 1014.5 |
| 20260905135030 | 21 | 158 | 6.4 | 12.9 | 0.00 | 0.36 | 0.36 | 89 | 1013.8 |
| 20260905134525 | 21 | 184 | 9.7 | 17.7 | 0.00 | 0.36 | 0.36 | 89 | 1013.7 |
| 20260905134024 | 21 | 183 | 8.0 | 9.7 | 0.00 | 0.36 | 0.36 | 89 | 1013.8 |
| 20260905133519 | 21 | 152 | 12.9 | 14.5 | 0.00 | 0.36 | 0.36 | 89 | 1014.0 |
| 20260905133019 | 21 | 195 | 9.7 | 14.5 | 0.00 | 0.36 | 0.36 | 89 | 1013.6 |
| 20260905132519 | 21 | 181 | 11.3 | 14.5 | 0.00 | 0.36 | 0.36 | 90 | 1013.9 |
| 20260905132014 | 21 | 181 | 12.9 | 14.5 | 0.00 | 0.36 | 0.36 | 90 | 1013.9 |
| 20260905131515 | 21 | 170 | 6.4 | 11.3 | 0.00 | 0.36 | 0.36 | 90 | 1013.7 |
| 20260905131010 | 21 | 185 | 9.7 | 14.5 | 0.00 | 0.36 | 0.36 | 91 | 1013.4 |
| 20260905130509 | 21 | 199 | 14.5 | 16.1 | 0.00 | 0.36 | 0.36 | 92 | 1013.5 |
| 20260905130004 | 20 | 179 | 4.8 | 9.7 | 0.00 | 0.36 | 0.36 | 93 | 1013.6 |
| 20260905125458 | 20 | 183 | 8.0 | 11.3 | 0.00 | 0.36 | 0.36 | 93 | 1013.6 |
| 20260905124954 | 20 | 162 | 14.5 | 16.1 | 0.00 | 0.36 | 0.36 | 93 | 1013.7 |
| 20260905124451 | 20 | 185 | 17.7 | 20.9 | 0.00 | 0.36 | 0.36 | 93 | 1013.7 |
| 20260905123946 | 20 | 173 | 17.7 | 17.7 | 0.00 | 0.36 | 0.36 | 94 | 1013.7 |
| 20260905123442 | 20 | 167 | 11.3 | 20.9 | 0.00 | 0.36 | 0.36 | 94 | 1013.8 |
| 20260905122943 | 20 | 203 | 9.7 | 14.5 | 0.00 | 0.36 | 0.36 | 94 | 1013.9 |
| 20260905122442 | 20 | 165 | 12.9 | 16.1 | 0.00 | 0.36 | 0.36 | 95 | 1014.2 |
| 20260905121938 | 20 | 172 | 12.9 | 16.1 | 0.00 | 0.36 | 0.36 | 95 | 1014.3 |
| 20260905121433 | 20 | 176 | 11.3 | 12.9 | 0.00 | 0.36 | 0.36 | 95 | 1014.2 |
| 20260905120932 | 20 | 167 | 9.7 | 14.5 | 0.00 | 0.36 | 0.36 | 95 | 1014.1 |
| 20260905120427 | 20 | 172 | 9.7 | 17.7 | 0.00 | 0.36 | 0.36 | 96 | 1014.2 |
| 20260905115922 | 20 | 214 | 12.9 | 17.7 | 0.00 | 0.36 | 0.36 | 96 | 1013.9 |
| 20260905115421 | 20 | 158 | 14.5 | 16.1 | 0.00 | 0.36 | 0.36 | 96 | 1014.2 |
| 20260905114917 | 20 | 150 | 9.7 | 12.9 | 0.00 | 0.36 | 0.36 | 96 | 1014.2 |
| 20260905114416 | 20 | 169 | 9.7 | 12.9 | 0.00 | 0.36 | 0.36 | 96 | 1014.1 |
| 20260905113915 | 20 | 174 | 9.7 | 12.9 | 0.00 | 0.36 | 0.36 | 96 | 1013.7 |
| 20260905113411 | 20 | 161 | 9.7 | 16.1 | 0.00 | 0.36 | 0.36 | 96 | 1013.9 |
| 20260905112906 | 20 | 183 | 11.3 | 16.1 | 0.00 | 0.36 | 0.36 | 96 | 1014.1 |
| 20260905112401 | 20 | 196 | 9.7 | 12.9 | 0.00 | 0.36 | 0.36 | 96 | 1014.0 |
| 20260905111857 | 20 | 172 | 12.9 | 14.5 | 0.00 | 0.36 | 0.36 | 96 | 1014.0 |
| 20260905111356 | 20 | 160 | 9.7 | 12.9 | 0.00 | 0.36 | 0.36 | 96 | 1013.9 |
| 20260905110856 | 20 | 168 | 9.7 | 14.5 | 0.00 | 0.36 | 0.36 | 95 | 1014.0 |
| 20260905110350 | 20 | 182 | 11.3 | 11.3 | 0.00 | 0.36 | 0.36 | 95 | 1014.2 |
| 20260905105846 | 20 | 171 | 9.7 | 11.3 | 0.00 | 0.36 | 0.36 | 95 | 1014.2 |
| 20260905105345 | 20 | 183 | 9.7 | 12.9 | 0.00 | 0.36 | 0.36 | 95 | 1014.1 |
| 20260905104844 | 20 | 167 | 6.4 | 6.4 | 0.00 | 0.36 | 0.36 | 95 | 1013.9 |
| 20260905104341 | 20 | 159 | 9.7 | 14.5 | 0.00 | 0.36 | 0.36 | 95 | 1013.8 |
| 20260905103840 | 20 | 157 | 8.0 | 11.3 | 0.00 | 0.36 | 0.36 | 95 | 1014.0 |
| 20260905103336 | 20 | 143 | 8.0 | 12.9 | 0.00 | 0.36 | 0.36 | 95 | 1014.2 |
| 20260905102832 | 20 | 130 | 4.8 | 11.3 | 0.00 | 0.36 | 0.36 | 95 | 1014.3 |
| 20260905102329 | 20 | 148 | 9.7 | 12.9 | 0.30 | 0.36 | 0.36 | 95 | 1014.3 |
| 20260905101828 | 20 | 114 | 1.6 | 6.4 | 0.30 | 0.36 | 0.36 | 95 | 1014.2 |
| 20260905101326 | 20 | 147 | 4.8 | 17.7 | 1.07 | 0.30 | 0.30 | 95 | 1014.0 |
| 20260905100821 | 20 | 66 | 4.8 | 11.3 | 0.79 | 0.25 | 0.25 | 94 | 1014.4 |
| 20260905100317 | 20 | 141 | 1.6 | 4.8 | 0.00 | 0.13 | 0.13 | 94 | 1014.7 |
| 20260905095817 | 20 | 87 | 6.4 | 12.9 | 0.00 | 0.13 | 0.13 | 94 | 1014.6 |
| 20260905095316 | 20 | 83 | 4.8 | 22.5 | 0.30 | 0.13 | 0.13 | 94 | 1014.5 |
| 20260905094811 | 20 | 138 | 3.2 | 11.3 | 0.71 | 0.13 | 0.13 | 93 | 1014.3 |
| 20260905094307 | 20 | 119 | 4.8 | 14.5 | 0.43 | 0.08 | 0.08 | 92 | 1014.9 |
| 20260905093806 | 20 | 113 | 6.4 | 17.7 | 0.00 | 0.00 | 0.00 | 92 | 1015.0 |
| 20260905093302 | 20 | 106 | 3.2 | 12.9 | 0.00 | 0.00 | 0.00 | 91 | 1014.7 |
| 20260905092757 | 21 | 337 | 0.0 | 14.5 | 0.00 | 0.00 | 0.00 | 91 | 1014.8 |
| 20260905092252 | 21 | 117 | 3.2 | 22.5 | 0.00 | 0.00 | 0.00 | 90 | 1014.5 |
| 20260905091752 | 21 | 95 | 14.5 | 17.7 | 0.00 | 0.00 | 0.00 | 89 | 1014.5 |
| 20260905091247 | 21 | 106 | 9.7 | 20.9 | 0.00 | 0.00 | 0.00 | 88 | 1014.2 |
| 20260905090746 | 21 | 99 | 3.2 | 27.4 | 0.00 | 0.00 | 0.00 | 88 | 1014.7 |
| 20260905090242 | 21 | 101 | 20.9 | 29.0 | 0.00 | 0.00 | 0.00 | 87 | 1014.9 |
| 20260905085741 | 21 | 111 | 12.9 | 30.6 | 0.00 | 0.00 | 0.00 | 85 | 1014.6 |
| 20260905085241 | 21 | 78 | 22.5 | 33.8 | 0.00 | 0.00 | 0.00 | 85 | 1014.6 |
| 20260905084741 | 21 | 66 | 14.5 | 33.8 | 0.00 | 0.00 | 0.00 | 85 | 1014.7 |
| 20260905084241 | 21 | 96 | 12.9 | 16.1 | 0.00 | 0.00 | 0.00 | 85 | 1014.7 |
| 20260905083736 | 21 | 83 | 6.4 | 25.7 | 0.00 | 0.00 | 0.00 | 84 | 1014.5 |
| 20260905083231 | 21 | 86 | 12.9 | 25.7 | 0.00 | 0.00 | 0.00 | 84 | 1014.7 |
| 20260905082727 | 22 | 89 | 17.7 | 25.7 | 0.00 | 0.00 | 0.00 | 84 | 1014.5 |
| 20260905082224 | 22 | 93 | 27.4 | 37.0 | 0.00 | 0.00 | 0.00 | 83 | 1014.5 |
| 20260905081724 | 22 | 67 | 25.7 | 43.5 | 0.00 | 0.00 | 0.00 | 93 | 1014.4 |
| 20260905081219 | 22 | 71 | 11.3 | 14.5 | 0.00 | 0.00 | 0.00 | 97 | 1014.0 |
| 20260905080719 | 22 | 67 | 4.8 | 6.4 | 0.00 | 0.00 | 0.00 | 97 | 1013.5 |